Regional Weather Roundup
Issued by NWS Midland/Odessa, TX

Skip options and go directly to product.
Home | Oldest Version | Previous Version | Current Version | All | Graphics & Text | Save Text | Print | Product List | Glossary On

Skip product version selection by date and time.   
027
ASUS44 KMAF 300710
RWRMAF
MIDLAND AREA WEATHER ROUNDUP
NATIONAL WEATHER SERVICE MIDLAND TX
200 AM CDT SUN AUG 30 2015

...IN SOUTHWEST TEXAS AND SOUTHEAST NEW MEXICO...

CITY           SKY/WX    TMP DP  RH WIND       PRES   REMARKS
ALPINE         CLEAR     61  48  62 NW3       30.23S
ANDREWS        FAIR      67  59  74 CALM      30.13F
ARTESIA        CLEAR     70  61  73 CALM      30.16S
BIG SPRING     PTCLDY    65  56  73 CALM      30.11F
CARLSBAD       CLEAR     72  53  51 SW3       30.13R
DRYDEN           N/A     78  57  48 VRB5      30.02S
FORT STOCKTON  CLEAR     69  53  56 E5        30.10S
GUAD PASS      CLEAR     64  51  62 NE14      30.25F
HOBBS            N/A     63  63 100 CALM      30.16F
MARFA          CLEAR     57  48  72 N9        30.20F
MIDLAND AIRPK  PTCLDY    69  59  69 CALM      30.10F
MIDLAND INTL   CLEAR     68  59  73 CALM      30.10F
ODESSA         PTCLDY    70  55  59 SE3       30.12F
PECOS          CLEAR     69  54  58 NE6       30.09S
PRESIDIO       NOT AVBL
SEMINOLE       CLEAR     65  54  66 CALM      30.15S
SNYDER         MOCLDY    69  55  61 W5        30.08F
WINK           CLEAR     70  59  68 E7        30.09S
$$
...OTHER STATIONS IN TEXAS...

CITY           SKY/WX    TMP DP  RH WIND       PRES   REMARKS
ABILENE        CLOUDY    72  64  76 W5        30.03S
AMARILLO       PTCLDY    63  58  83 SW6       30.15S
AUSTIN         CLOUDY    77  66  68 S6        30.01R
BROWNSVILLE    CLEAR     79  75  87 SE8       29.97F
CORPUS CHRISTI PTCLDY    71  60  68 CALM      29.98F
DALLAS FTW     CLOUDY    79  65  62 S6        29.96F
DEL RIO        CLEAR     80  54  40 E8        29.97S
EL PASO        PTCLDY    78  54  43 SE5       30.12S
HOUSTON INT    MOCLDY    72  66  81 CALM      30.00S
LUBBOCK        PTCLDY    64  56  75 W7        30.13R
SAN ANGELO     CLOUDY    75  58  55 S3        30.04F
SAN ANTONIO    CLOUDY    79  65  62 S9        30.02S
WACO           CLOUDY    82  64  54 S9        29.99F
WICHITA FALLS  NOT AVBL
$$
...OTHER LOCATIONS IN NEW MEXICO...

CITY           SKY/WX    TMP DP  RH WIND       PRES   REMARKS
ALAMAGORDO     CLEAR     68  57  68 N5        30.16R
ALBUQUERQUE    PTCLDY    72  49  44 W5        30.25R
CANNON AFB     CLEAR     60  54  78 NE3       30.19F
CLOVIS         CLEAR     63  55  77 NW3       30.20F
HOLLOMAN AFB   CLEAR     70  58  65 VRB2      30.14R
ROSWELL        CLEAR     67  60  78 CALM      30.16R
RUIDOSO        CLEAR     61  52  72 MISG      30.37S
SANTA FE       CLEAR     63  49  60 SE5       30.32R
TRUTH OR CONSE MOCLDY    76  52  43 SW5       30.19S
TUCUMCARI      CLEAR     63  54  72 CALM      30.17S
$$

USA.gov is the U.S. government's official web portal to all federal, state and local government web resources and services.